Location: Battersea Observatory
(44.4318°N, 76.3841°W)
Time: 11:34:42
(UTC-05:00)

Tiangong - Pass Details

Date: 14 December 2021
Orbit: 383 x 386 km, 41.5° (Epoch: 19 January)

Event Time Altitude Azimuth Distance (km) Brightness Sun altitude
Rises 17:14:40 0° 254° (WSW) 2,276 7.2 -8.4°
Reaches altitude 10° 17:16:47 10° 248° (WSW) 1,420 5.7 -8.7°
Maximum altitude 17:19:52 46° 174° (S) 532 1.9 -9.3°
Enters shadow 17:22:54 10° 100° (E) 1,390 3.4 -9.7°
